Temp
45 48 44 44 47 44 45 49 53 53 54 55 55 52 52 53 49 49 49 50 50 49
46 46 46 47 46 49 50 52 52 53 53 54 53 51 53 53 48 49 49 48 49 48
46 46 46 46 46 50 50 50 49 49 53 51 51 52 54 53 53 49 48 48 49 48
46 46 46 45 46 47 47 48 49 49 50 50 49 50 52 54 54 53 49 49 49 48
47 46 45 45 46 46 46 47 47 48 47 48 48 48 50 52 53 53 52 51 49 49
48 50 50 48 46 46 47 47 47 47 46 46 47 47 48 48 50 48 48 47 47 46
46 49 47 49 48 46 46 46 47 46 46 46 46 47 47 48 48 48 48 48 48 47
48 48 50 51 49 50 49 49 48 47 46 45 47 48 46 47 47 47 47 48 49 49
51 52 49 51 52 51 50 51 51 49 46 45 48 48 51 49 46 47 47 47 47 48
49 51 50 49 49 48 48 50 49 46 45 45 46 47 47 51 47 46 46 46 46 48
53 52 51 50 48 47 46 46 45 45 44 44 46 47 46 48 47 46 47 47 47 46
53 52 52 51 48 47 46 46 46 45 46 45 45 46 46 46 45 47 48 48 48 48
50 49 48 49 49 52 50 47 48 48 46 49 45 46 45 45 46 47 47 48 49 49
50 49 48 48 47 47 51 48 47 47 46 45 45 44 45 44 46 46 49 52 49 51
MSLP
1026.16 1025.78 1025.40 1024.97 1024.43 1023.97 1023.45 1022.71 1022.01 1021.47 1021.01 1020.69 1020.51 1020.44 1020.26 1020.11 1020.01 1019.86 1019.77 1019.85 1019.84 1020.12
1026.16 1025.77 1025.40 1024.93 1024.50 1023.94 1023.23 1022.59 1022.15 1021.71 1021.32 1021.00 1020.90 1020.75 1020.35 1020.28 1020.27 1020.14 1020.12 1020.11 1020.16 1020.31
1026.24 1025.83 1025.43 1025.02 1024.54 1023.96 1023.30 1022.85 1022.47 1022.18 1021.87 1021.78 1021.43 1021.00 1020.56 1020.48 1020.53 1020.40 1020.55 1020.55 1020.56 1020.77
1026.19 1025.83 1025.44 1025.09 1024.62 1024.22 1023.64 1023.16 1022.94 1022.67 1022.51 1022.27 1022.00 1021.54 1021.09 1020.95 1020.94 1020.88 1021.00 1021.03 1021.14 1021.42
1026.15 1025.79 1025.52 1025.14 1024.72 1024.27 1024.02 1023.54 1023.27 1023.08 1022.98 1022.79 1022.52 1022.19 1021.81 1021.57 1021.50 1021.50 1021.58 1021.59 1021.58 1021.71
1026.12 1025.75 1025.56 1025.25 1024.83 1024.52 1024.23 1023.88 1023.63 1023.49 1023.39 1023.25 1023.02 1022.73 1022.43 1022.22 1022.09 1022.08 1022.08 1022.05 1022.02 1022.08
1026.19 1025.85 1025.55 1025.29 1025.03 1024.77 1024.56 1024.29 1024.04 1023.93 1023.80 1023.63 1023.40 1023.08 1022.82 1022.66 1022.59 1022.54 1022.46 1022.37 1022.30 1022.23
1026.19 1025.86 1025.56 1025.25 1025.07 1024.86 1024.64 1024.38 1024.14 1024.08 1024.04 1023.88 1023.66 1023.40 1023.04 1022.94 1022.90 1022.82 1022.74 1022.64 1022.50 1022.28
1026.19 1025.85 1025.60 1025.35 1025.12 1024.93 1024.74 1024.41 1024.23 1024.22 1024.22 1024.11 1023.85 1023.54 1023.15 1023.11 1023.17 1023.16 1023.11 1023.07 1022.86 1022.65
1026.29 1025.94 1025.62 1025.33 1025.16 1024.96 1024.88 1024.69 1024.62 1024.54 1024.45 1024.35 1024.10 1023.78 1023.54 1023.24 1023.32 1023.35 1023.33 1023.20 1022.96 1022.65
1026.36 1026.04 1025.70 1025.44 1025.20 1025.10 1025.03 1024.98 1024.97 1024.89 1024.72 1024.56 1024.28 1023.92 1023.75 1023.45 1023.36 1023.28 1023.14 1022.97 1022.78 1022.60
1026.56 1026.16 1025.80 1025.68 1025.51 1025.31 1025.19 1025.14 1025.12 1025.02 1024.85 1024.70 1024.37 1024.03 1023.72 1023.46 1023.28 1023.09 1022.90 1022.69 1022.50 1022.41
1026.58 1026.37 1026.15 1025.93 1025.65 1025.48 1025.37 1025.26 1025.19 1025.12 1024.96 1024.80 1024.60 1024.04 1023.86 1023.55 1023.38 1023.26 1023.04 1022.65 1022.44 1022.21
1026.62 1026.39 1026.20 1026.02 1025.86 1025.75 1025.57 1025.51 1025.47 1025.37 1025.25 1025.08 1024.84 1024.67 1024.32 1024.04 1023.73 1023.49 1023.14 1022.77 1022.42 1022.08
Wind_Speed
6 3 4 4 4 4 3 4 5 5 4 5 6 5 4 3 3 3 3 4 4 3
6 6 5 6 5 4 5 5 5 5 6 8 6 5 3 3 4 4 4 5 5 3
6 6 6 5 6 6 6 6 6 6 5 5 6 6 5 4 4 5 4 3 6 5
6 6 5 5 5 6 6 6 6 6 6 6 7 7 6 6 6 6 6 6 6 6
5 5 6 6 6 6 6 5 6 6 6 6 6 6 7 6 5 6 6 5 6 6
6 5 4 5 6 6 6 6 6 6 6 6 6 6 6 6 6 6 6 5 5 4
6 5 5 5 5 5 5 5 5 5 5 5 5 5 5 5 5 4 5 5 4 3
5 5 4 4 4 4 4 3 2 4 5 5 4 3 4 5 4 4 5 5 4 2
5 5 5 4 4 3 4 4 4 4 5 5 3 8 7 4 4 4 4 5 6 4
6 5 6 5 5 5 5 4 5 5 4 4 4 8 7 5 3 3 3 3 4 4
6 5 6 6 6 4 3 4 3 3 3 3 4 7 6 6 3 3 3 2 2 3
5 7 6 6 6 4 3 3 3 2 4 5 5 8 7 3 2 3 4 3 3 2
5 5 6 5 5 3 2 2 2 3 5 6 6 11 12 7 3 4 4 4 5 6
6 6 4 4 3 4 2 2 2 3 4 5 5 6 9 10 3 2 3 3 4 3
Wind_Direction
341 321 317 310 317 312 304 300 319 333 21 17 5 16 15 18 14 39 55 83 83 80
345 338 336 333 333 322 311 321 359 5 21 4 349 356 3 13 34 48 49 71 78 78
335 343 343 342 347 329 325 348 10 16 23 20 8 359 11 23 33 71 51 55 68 53
345 350 354 347 344 348 343 355 17 19 22 17 13 2 8 32 33 56 66 57 68 58
343 355 1 348 353 358 359 1 24 36 29 19 11 8 13 27 33 52 53 53 56 47
344 349 352 348 356 7 5 13 28 34 31 22 12 19 23 33 57 61 56 49 56 43
350 337 339 338 359 11 7 25 35 34 29 22 11 15 29 52 68 63 54 56 67 69
338 335 343 360 356 6 8 15 35 49 39 30 18 6 31 40 36 47 43 31 26 7
350 355 8 7 348 21 9 6 33 59 55 34 12 2 39 74 38 31 39 26 2 340
346 340 344 339 352 6 13 30 43 51 55 33 0 360 9 34 40 28 12 12 3 349
348 344 354 4 14 15 17 33 42 28 29 6 334 338 349 345 9 351 321 330 345 352
341 342 355 8 12 11 26 36 22 2 9 16 347 353 355 23 24 21 358 344 339 300
352 357 6 355 358 352 355 37 47 18 16 15 3 350 6 14 18 22 349 330 305 300
356 339 358 340 8 353 5 55 24 27 357 7 359 349 353 355 15 341 309 300 301 290